This demonstration page uses our WeatherBlox Daily Observations layout. Learn more.

Left ArrowRight Arrow

34.74481, -87.66753

Hourly Observations for December 25, 2020

Temp ( °F °C ) Dew Point ( °F °C ) Humidity (%) Winds ( mph kmh ) Pressure ( in mb ) Visibility ( mi km ) Precip ( " mm )
12:53 am 00:53 Clear 28 -2.2 8 -13.3 43 43 NW 12 19 30.02 1017 10 16 0.00 0.00
1:53 am 01:53 Clear 27 -2.8 4 -15.6 37 37 NW 7 11 30.02 1017 10 16 0.00 0.00
2:53 am 02:53 Clear 26 -3.3 4 -15.6 38 38 NW 12 19 30.03 1017 10 16 0.00 0.00
3:53 am 03:53 Clear 24 -4.4 4 -15.6 42 42 NNW 5 7 30.04 1017 10 16 0.00 0.00
4:53 am 04:53 Clear 22 -5.6 4 -15.6 46 46 WNW 6 9 30.06 1018 10 16 0.00 0.00
5:53 am 05:53 Clear 23 -5 3 -16.1 42 42 NW 6 9 30.07 1018 10 16 0.00 0.00
6:53 am 06:53 Clear 22 -5.6 2 -16.7 42 42 WNW 7 11 30.09 1019 10 16 0.00 0.00
7:53 am 07:53 Sunny 24 -4.4 4 -15.6 42 42 WNW 8 13 30.11 1020 10 16 0.00 0.00
8:53 am 08:53 Sunny 26 -3.3 5 -15 40 40 WNW 16 26 30.13 1020 10 16 0.00 0.00
9:53 am 09:53 Sunny 28 -2.2 5 -15 37 37 WNW 17 28 30.15 1021 10 16 0.00 0.00
10:53 am 10:53 Sunny 29 -1.7 5 -15 36 36 W 18 30 30.16 1021 10 16 0.00 0.00
11:53 am 11:53 Sunny 31 -0.6 4 -15.6 31 31 WNW 16 26 30.14 1021 10 16 0.00 0.00
12:53 pm 12:53 Sunny 33 0.6 5 -15 30 30 WNW 18 30 30.14 1021 10 16 0.00 0.00
1:53 pm 13:53 Sunny 33 0.6 5 -15 30 30 WNW 18 30 30.14 1021 10 16 0.00 0.00
2:53 pm 14:53 Sunny 34 1.1 5 -15 29 29 WNW 16 26 30.15 1021 10 16 0.00 0.00
3:53 pm 15:53 Sunny 34 1.1 5 -15 29 29 WNW 12 19 30.17 1022 10 16 0.00 0.00
4:53 pm 16:53 Clear 32 0 6 -14.4 33 33 NW 9 15 30.19 1022 10 16 0.00 0.00
5:53 pm 17:53 Clear 30 -1.1 7 -13.9 38 38 NW 5 7 30.21 1023 10 16 0.00 0.00
6:53 pm 18:53 Clear 30 -1.1 6 -14.4 36 36 NW 6 9 30.22 1024 10 16 0.00 0.00
7:53 pm 19:53 Clear 28 -2.2 7 -13.9 41 41 NW 6 9 30.24 1024 10 16 0.00 0.00
8:53 pm 20:53 Clear 28 -2.2 8 -13.3 43 43 NNW 3 6 30.26 1025 10 16 0.00 0.00
9:53 pm 21:53 Clear 27 -2.8 7 -13.9 43 43 Calm 30.25 1025 10 16 0.00 0.00
10:53 pm 22:53 Clear 23 -5 11 -11.7 60 60 SSW 3 6 30.24 1024 10 16 0.00 0.00
11:53 pm 23:53 Clear 24 -4.4 12 -11.1 60 60 Calm 30.25 1025 10 16 0.00 0.00

Powered by AerisWeather